Simultaneous Nadir Overpasses (SNOs) Predictions

Prediction of SNOs between AQUA and METOP-B Satellite Orbit:

Table of predicted SNOs for the next 14.0 days since TLE Epoch: 11/4/2022
Index Date (AQUA) Time (AQUA) Lat,Lon (AQUA) SZA (AQUA ) Date (METOP-B) Time (METOP-B) Lat,Lon (METOP-B) SZA (METOP-B ) Distance(km) Time Diff (sec)
1 11/06/2022 22:12:27 -74.08, 21.92 89.83 11/06/2022 22:11:51 -74.07, 21.86 89.84 1.95 36
2 11/06/2022 23:01:55 74.14,-170.58 90.25 11/06/2022 23:02:29 74.15,-170.61 90.26 1.61 34
3 11/09/2022 16:56:14 74.11, -79.09 91.02 11/09/2022 16:55:30 74.10, -78.99 91.00 3.54 44
4 11/09/2022 17:45:39 -74.13, 88.53 88.96 11/09/2022 17:46:11 -74.15, 88.46 88.94 2.93 32
5 11/12/2022 11:39:58 -74.11,-179.99 88.22 11/12/2022 11:39:13 -74.08,-179.95 88.25 3.20 45
6 11/12/2022 12:29:26 74.18, -12.51 91.86 11/12/2022 12:29:51 74.16, -12.42 91.84 3.34 25
7 11/15/2022 06:23:42 74.07, 79.18 92.47 11/15/2022 06:22:53 74.08, 79.14 92.49 1.97 49
8 11/15/2022 07:13:08 -74.13,-113.31 87.47 11/15/2022 07:13:34 -74.14,-113.40 87.45 3.00 26
9 11/18/2022 01:07:23 -74.08, -21.74 86.84 11/18/2022 01:06:34 -74.10, -21.73 86.81 2.76 49
10 11/18/2022 01:56:51 74.16, 145.72 93.26 11/18/2022 01:57:12 74.18, 145.79 93.28 3.04 21



Historial Predications of SNOs between AQUA and METOP-B
